FENGYUN 1C DEB, 30415

Orbit data source: Space-Track

FENGYUN 1C DEB, 30415 is space debris in SSO originally from a launch on Mon, 10 May 1999 UTC launched from the Taiyaun Space Center, China (TSC). Fengyun 1C debris stems from the Chinese weather satellite Fengyun-1C, which was intentionally destroyed by a Chinese anti-satellite missile in 2007. This event dramatically increased the amount of space debris, with thousands of trackable fragments posing hazards to satellites and human spaceflight. The Fengyun 1C debris cloud has become a focal point in discussions about space sustainability and the need for international regulations to prevent the creation of new debris.

Loading next visibility...
Identifier
30415, 1999-025AEE
Orbit
SSO
Country
Flag of CNCN / PRC
Related business
Manufacturer
Unknown
Mission
Spacecraft
Bus & Motor
Unknown
Mass
Unknown
Launch date (UTC)
1999-05-10 (27 years ago)
Launch vehicle
Unknown
Launch site
Taiyaun Space Center, China (TSC)
Object type
Payload
Rocket body
Debris
Shape & HBR
Unknown shape, 0.1 m
Radar Cross Section
Medium (>0.1 m² and <1 m²)

Expand to show TLE details & history
Last TLE update: 13 hours ago

TLE from 13 hours ago
0 FENGYUN 1C DEB
1 30415U 99025AEE 26150.92021234  .00001259  00000-0  12310-2 0  9991
2 30415  99.6336 216.3492 0236668 194.9786 224.9073 13.69443430961935
Epoch: 2026-05-30T22:05Z
TLE epoch observation values (Epoch: 2026-05-30T22:05:06.346Z)
Latitude
56.83579°
Longitude
-18.33322°
Altitude
1,136.735 km
Speed
7.227 km/s
True Right ascension
13h 25m 29s
True Declination
56° 41' 10"
Sunlit
Object was in daylight at epoch
Visualization orbit readout
Latitude
Unknown
Longitude
Unknown
Altitude
Unknown
Speed
Unknown
Apparent Right ascension
Unknown
Apparent Declination
Unknown
Sunlit
N/A
Visualization observer readout
Local Sidereal Time
20:32:58
Azimuth
Unknown
Elevation
Unknown
Doppler factor
Unknown
Orbital elements
Apogee altitude
1,173.429 km
Perigee altitude
824.25 km
Semi-major axis
7,376.977 km
Eccentricity
0.02367
Inclination
99.6336°
RAAN
216.3492°
Arg. of periapsis
194.9786°
True anomaly
223.03238°
Mean anomaly
224.9073°
Eccentric anomaly
223.96592°
Mean motion
3.42551 °/min
Orbital period
105.09 mins
BSTAR
0.001231
Loading maneuver chart data...
Computing Atmospheric mass density...
Loading historical data...
Loading historical data...
Loading historical data...
Loading historical data...
Loading historical data...
Loading historical data...
Loading historical data...

Documentation

Showing up to 5 results
|